Flag for Iran Weather past 2 weeks in Bandar-Abbas, Iran

Now
64 °F

Fog.


Feels Like: 64 °F
Forecast: 57 / 80 °F
Wind: 9 mph from North

Location: Bandarabbass

Current Time: Jan 31, 2015 at 11:27:52 PM

Latest Report: Jan 31, 2015 at 11:00 PM


Visibility: 3 mi

Pressure: 29.98 "Hg

Humidity: 83%

Dew point: 59 °F

Location of Bandar-AbbasLocation

Historic Weather in Bandar-Abbas — Graph

°F

Bandar-Abbas temperature yesterday

Maximum temperature yesterday: 77 °F (at 11:30 AM)
Minimum temperature yesterday: 55 °F (at 4:30 AM)
Average temperature yesterday: 68 °F

Past Weeks' High & Low Weather Summary

 TemperatureHumidityPressure
High79 °F (Jan 25, 1:30 PM)94% (Jan 29, 3:30 AM)30.24 "Hg (Jan 29, 3:30 AM)
Low43 °F (Jan 22, 6:30 AM)10% (Jan 24, 2:30 PM)29.83 "Hg (Jan 19, 2:20 PM)
Average64 °F64%30.07 "Hg
* Reported Jan 16 9:30 PM — Jan 31 10:00 PM, Bandar-Abbas, Weather by CustomWeather, © 2014

Note: Actual official high and low records may vary slightly from our data, if they occured in-between our weather recording intervals... More about our weather records

Advertising

Bandar-Abbas weather history for previous 24 hours

 ConditionsComfort  
Time TempWeatherWind HumidityBarometerVisibility
10:00 PM
Jan 31
64 °FFog.5 mph83%30.01 "Hg3 mi
9:30 PM66 °FClear.7 mph78%30.01 "Hg3 mi
9:00 PM66 °FClear.5 mph78%30.01 "Hg3 mi
8:30 PM66 °FClear.5 mph78%30.01 "Hg3 mi
8:00 PM68 °FClear.5 mph73%30.01 "Hg3 mi
7:30 PM70 °FClear.5 mph69%29.98 "Hg3 mi
7:00 PM70 °FClear.5 mph73%29.98 "Hg3 mi
6:30 PM72 °FClear.5 mph73%29.98 "Hg3 mi
6:00 PM72 °FClear.5 mph73%29.98 "Hg3 mi
5:30 PM73 °FSunny.5 mph74%29.98 "Hg3 mi
5:00 PM73 °FSunny.9 mph74%29.98 "Hg3 mi
4:30 PM75 °FSunny.9 mph69%29.98 "Hg3 mi
4:00 PM75 °FSunny.12 mph74%29.95 "Hg3 mi
3:30 PM77 °FSunny.9 mph65%29.95 "Hg3 mi
3:00 PM77 °FSunny.12 mph65%29.98 "Hg3 mi
2:30 PM77 °FSunny.7 mph61%29.98 "Hg2 mi
2:00 PM77 °FSunny.9 mph57%29.98 "Hg3 mi
1:30 PM77 °FSunny.14 mph57%30.01 "Hg2 mi
1:00 PM77 °FSunny.9 mph57%30.01 "Hg2 mi
12:30 PM77 °FSunny.9 mph61%30.04 "Hg2 mi
12:00 PM77 °FSunny.7 mph65%30.07 "Hg2 mi
11:30 AM77 °FScattered clouds.9 mph69%30.07 "Hg2 mi
11:00 AM75 °FScattered clouds.No wind69%30.07 "Hg2 mi
10:30 AM75 °FScattered clouds.No wind74%30.07 "Hg2 mi
10:00 AM73 °FPartly sunny.No wind78%30.09 "Hg2 mi
9:30 AM70 °FFog.5 mph88%30.09 "Hg1 mi
9:00 AM70 °FFog.5 mph88%30.09 "Hg1 mi
8:30 AM68 °FFog.5 mph88%30.09 "Hg1 mi
8:00 AM66 °FFog.5 mph94%30.09 "Hg1 mi
7:30 AM63 °FFog.9 mph94%30.07 "Hg1 mi
6:30 AM59 °FFog.5 mph94%30.07 "Hg1 mi
5:30 AM63 °FFog.No wind94%30.04 "Hg1 mi
4:20 AM64 °FFog.5 mph94%30.04 "Hg1 mi
3:20 AM64 °FFog.5 mph94%30.04 "Hg1 mi
2:30 AM64 °FFog.5 mph94%30.04 "Hg1 mi
1:30 AM66 °FFog.5 mph94%30.07 "Hg1 mi
1:00 AM64 °FFog.7 mph88%30.07 "Hg1 mi
12:30 AM64 °FFog.5 mph88%30.07 "Hg1 mi
12:00 AM64 °FFog.7 mph94%30.07 "Hg2 mi
11:30 PM
Jan 30
64 °FFog.5 mph94%30.07 "Hg1 mi
11:00 PM64 °FFog.5 mph94%30.07 "Hg2 mi
Weather by CustomWeather, © 2014

See weather overviewHow to use our weather pages